Weather History for KGRF - December, 2013

Change the Weather History Date:

Tuesday, December 17, 2013

  Actual Average Record
Temperature  
Mean Temperature 42 °F -  
Max Temperature 46 °F 43 °F 57 °F (1999)
Min Temperature 37 °F 33 °F 19 °F (2005)
Degree Days  
Heating Degree Days 24    
Moisture  
Dew Point 40 °F    
Average Humidity 98    
Maximum Humidity 100    
Minimum Humidity 82    
Precipitation  
Precipitation 0.00 in - - ()
Sea Level Pressure  
Sea Level Pressure 30.19 in    
Wind  
Wind Speed 4 mph (SSE)    
Max Wind Speed 12 mph    
Max Gust Speed -    
Visibility 6 miles    
Events Fog , Rain    
Averages and records for this station are not official NWS values.
T = Trace of Precipitation, MM = Missing Value Source: NWS Daily Summary

Daily Weather History Graph

Daily Weather History Graph

Search for Another Location

Airport or City:

Trip Planner

Search our weather history database for the weather conditions in past years. The results will help you decide how hot, cold, wet, or windy it might be!

Date:

Astronomy

Dec. 17, 2013 Rise Set
Actual Time 7:51 AM PST 4:21 PM PST
Civil Twilight 7:15 AM PST 4:57 PM PST
Nautical Twilight 6:36 AM PST 5:36 PM PST
Astronomical Twilight 5:59 AM PST 6:13 PM PST
Moon 5:10 PM PST (12/17) 7:47 AM PST (12/17)
Length of Visible Light 9h 41m
Length of Day
8h 30m
Full, 100% of the Moon is Illuminated
Dec 17
Full
Dec 25
Last Quarter
Jan 1
New
Jan 7
First Quarter
Jan 15
Full

Hourly Weather History & Observations

Time (PST) Temp. Windchill Dew Point Humidity Pressure Visibility Wind Dir Wind Speed Gust Speed Precip Events Conditions
12:03 AM 41.0 °F - 41.0 °F 100% 30.27 in 9.0 mi North 1.2 mph - N/A   Overcast
12:08 AM 41.0 °F - 41.0 °F 100% 30.27 in 9.0 mi Calm Calm - N/A   Overcast
12:18 AM 41.0 °F - 41.0 °F 100% 30.26 in 9.0 mi NE 1.2 mph - N/A   Overcast
12:28 AM 41.0 °F 39.0 °F 41.0 °F 100% 30.26 in 7.0 mi North 3.5 mph - N/A   Overcast
12:38 AM 41.0 °F - 41.0 °F 100% 30.26 in 7.0 mi Calm Calm - N/A   Overcast
12:58 AM 41.4 °F 39.4 °F 41.2 °F 99% 30.27 in 7.0 mi NNE 3.5 mph - N/A   Overcast
1:38 AM 41.0 °F - 41.0 °F 100% 30.24 in 7.0 mi East 2.3 mph - N/A   Overcast
1:58 AM 40.8 °F 37.8 °F 40.6 °F 99% 30.25 in 7.0 mi East 4.6 mph - N/A   Overcast
2:08 AM 41.0 °F 38.0 °F 41.0 °F 100% 30.23 in 7.0 mi East 4.6 mph - N/A   Overcast
2:18 AM 41.0 °F - 41.0 °F 100% 30.23 in 4.0 mi NW 2.3 mph - N/A   Overcast
2:28 AM 41.0 °F 39.0 °F 39.2 °F 93% 30.23 in 2.5 mi West 3.5 mph - N/A   Overcast
2:33 AM 41.0 °F - 39.2 °F 93% 30.23 in 3.0 mi WNW 2.3 mph - N/A   Overcast
2:53 AM 39.2 °F - 39.2 °F 100% 30.22 in 2.5 mi Variable 1.2 mph - N/A   Overcast
2:58 AM 39.9 °F - 39.6 °F 99% 30.25 in 2.5 mi Calm Calm - N/A   Overcast
3:03 AM 39.2 °F - 39.2 °F 100% 30.23 in 3.0 mi Calm Calm - N/A   Overcast
3:18 AM 39.2 °F - 39.2 °F 100% 30.22 in 1.8 mi WSW 2.3 mph - N/A   Overcast
3:23 AM 39.2 °F 37.0 °F 39.2 °F 100% 30.22 in 1.5 mi SW 3.5 mph - N/A   Overcast
3:28 AM 39.2 °F - 39.2 °F 100% 30.22 in 1.8 mi SSW 2.3 mph - N/A   Overcast
3:33 AM 39.2 °F - 39.2 °F 100% 30.22 in 2.0 mi South 2.3 mph - N/A   Overcast
3:58 AM 39.7 °F - 39.4 °F 99% 30.23 in 2.5 mi ESE 2.3 mph - N/A   Overcast
4:03 AM 39.2 °F - 39.2 °F 100% 30.21 in 3.0 mi ESE 2.3 mph - N/A   Overcast
4:23 AM 39.2 °F 37.0 °F 39.2 °F 100% 30.21 in 2.0 mi ESE 3.5 mph - N/A   Overcast
4:28 AM 39.2 °F - 39.2 °F 100% 30.21 in 1.5 mi Variable 1.2 mph - N/A   Overcast
4:38 AM 39.2 °F - 39.2 °F 100% 30.21 in 1.2 mi SE 2.3 mph - N/A   Overcast
4:58 AM 39.0 °F - 38.8 °F 99% 30.23 in 1.5 mi SE 2.3 mph - N/A   Overcast
5:08 AM 39.2 °F - 39.2 °F 100% 30.21 in 1.2 mi SE 1.2 mph - N/A   Overcast
5:13 AM 39.2 °F - 39.2 °F 100% 30.20 in 1.0 mi SE 2.3 mph - N/A   Overcast
5:43 AM 39.2 °F 35.9 °F 39.2 °F 100% 30.20 in 1.2 mi SE 4.6 mph - N/A   Overcast
5:48 AM 39.2 °F 37.0 °F 39.2 °F 100% 30.20 in 2.0 mi SSE 3.5 mph - N/A   Overcast
5:53 AM 39.2 °F 35.9 °F 39.2 °F 100% 30.20 in 2.0 mi SSE 4.6 mph - N/A   Overcast
5:58 AM 39.0 °F 35.7 °F 38.8 °F 99% 30.22 in 2.0 mi SSE 4.6 mph - N/A   Overcast
6:03 AM 39.2 °F 34.2 °F 39.2 °F 100% 30.19 in 2.5 mi SE 6.9 mph - N/A   Overcast
6:13 AM 39.2 °F 34.2 °F 39.2 °F 100% 30.20 in 1.8 mi SSE 6.9 mph - N/A   Overcast
6:18 AM 39.2 °F 35.0 °F 39.2 °F 100% 30.20 in 1.2 mi SSE 5.8 mph - N/A   Overcast
6:23 AM 39.2 °F 34.2 °F 39.2 °F 100% 30.19 in 1.5 mi SE 6.9 mph - N/A   Overcast
6:28 AM 39.2 °F 33.6 °F 39.2 °F 100% 30.19 in 2.0 mi SE 8.1 mph - N/A   Overcast
6:38 AM 39.2 °F 33.6 °F 39.2 °F 100% 30.19 in 1.8 mi SE 8.1 mph - N/A   Overcast
6:43 AM 39.2 °F 33.0 °F 37.4 °F 93% 30.19 in 1.5 mi SE 9.2 mph - N/A   Overcast
6:48 AM 37.4 °F 30.8 °F 37.4 °F 100% 30.19 in 1.5 mi SE 9.2 mph - N/A   Overcast
6:53 AM 37.4 °F 30.8 °F 37.4 °F 100% 30.19 in 1.8 mi SE 9.2 mph - N/A   Overcast
6:58 AM 38.1 °F 31.7 °F 37.9 °F 99% 30.21 in 1.8 mi SE 9.2 mph - N/A   Overcast
7:03 AM 37.4 °F 30.8 °F 37.4 °F 100% 30.18 in 1.5 mi SE 9.2 mph - N/A   Overcast
7:13 AM 37.4 °F 30.8 °F 37.4 °F 100% 30.18 in 1.8 mi SSE 9.2 mph - N/A   Overcast
7:18 AM 37.4 °F 30.8 °F 37.4 °F 100% 30.17 in 2.0 mi SE 9.2 mph - N/A   Overcast
7:28 AM 37.4 °F 32.8 °F 37.4 °F 100% 30.18 in 2.5 mi SSE 5.8 mph - N/A   Overcast
7:33 AM 37.4 °F 33.8 °F 37.4 °F 100% 30.18 in 3.0 mi SE 4.6 mph - N/A   Overcast
7:49 AM 37.4 °F 32.8 °F 37.4 °F 100% 30.18 in 1.0 mi SSE 5.8 mph - N/A   Overcast
8:01 AM 37.4 °F 34.9 °F 37.4 °F 100% 30.19 in 0.8 mi SW 3.5 mph - N/A   Overcast
8:09 AM 37.4 °F 32.8 °F 37.4 °F 100% 30.18 in 0.5 mi SW 5.8 mph - N/A Fog Fog
8:34 AM 37.4 °F - 37.4 °F 100% 30.19 in 0.4 mi SSW 2.3 mph - N/A Fog Fog
8:44 AM 37.4 °F - 37.4 °F 100% 30.20 in 0.5 mi SW 2.3 mph - N/A Fog Fog
8:49 AM 37.4 °F - 37.4 °F 100% 30.20 in 0.4 mi WSW 2.3 mph - N/A Fog Fog
8:58 AM 37.6 °F 35.1 °F 37.4 °F 99% 30.22 in 1.0 mi SW 3.5 mph - N/A   Overcast
9:58 AM 38.3 °F 33.9 °F 37.9 °F 99% 30.22 in 1.2 mi SE 5.8 mph - N/A   Overcast
10:23 AM 39.2 °F 35.0 °F 39.2 °F 100% 30.20 in 2.5 mi SE 5.8 mph - N/A   Overcast
10:58 AM 38.7 °F 34.3 °F 38.5 °F 99% 30.22 in 2.5 mi SE 5.8 mph - N/A   Overcast
11:08 AM 39.2 °F 35.0 °F 39.2 °F 100% 30.20 in 8.0 mi ESE 5.8 mph - N/A   Overcast
11:18 AM 39.2 °F 33.6 °F 39.2 °F 100% 30.19 in 10.0 mi SE 8.1 mph - N/A   Overcast
11:58 AM 39.6 °F 37.4 °F 39.2 °F 99% 30.20 in 10.0 mi SE 3.5 mph - N/A   Overcast
12:03 PM 39.2 °F 37.0 °F 39.2 °F 100% 30.18 in 10.0 mi SE 3.5 mph - N/A   Overcast
12:48 PM 41.0 °F 38.0 °F 39.2 °F 93% 30.17 in 10.0 mi South 4.6 mph - N/A   Overcast
12:58 PM 40.6 °F 38.6 °F 40.5 °F 99% 30.18 in 10.0 mi SSE 3.5 mph - N/A   Overcast
1:03 PM 41.0 °F 39.0 °F 41.0 °F 100% 30.16 in 10.0 mi SE 3.5 mph - N/A   Overcast
1:18 PM 41.0 °F 39.0 °F 41.0 °F 100% 30.15 in 10.0 mi SE 3.5 mph - N/A   Overcast
1:33 PM 42.8 °F - 41.0 °F 93% 30.15 in 10.0 mi ESE 2.3 mph - N/A   Mostly Cloudy
1:49 PM 42.8 °F 41.1 °F 41.0 °F 93% 30.15 in 10.0 mi East 3.5 mph - N/A Rain Light Rain
1:58 PM 43.3 °F 40.7 °F 41.4 °F 93% 30.17 in 10.0 mi ESE 4.6 mph - 0.00 in Rain Light Rain
1:59 PM 42.8 °F 40.1 °F 41.0 °F 93% 30.15 in 10.0 mi ESE 4.6 mph - N/A   Mostly Cloudy
2:58 PM 43.3 °F 40.7 °F 41.7 °F 94% 30.16 in 10.0 mi SE 4.6 mph - 0.00 in   Overcast
3:58 PM 42.8 °F 39.3 °F 42.3 °F 98% 30.15 in 10.0 mi SE 5.8 mph - N/A   Overcast
4:33 PM 42.8 °F 38.6 °F 42.8 °F 100% 30.13 in 10.0 mi SSE 6.9 mph - N/A   Overcast
4:58 PM 44.6 °F 40.2 °F 40.8 °F 87% 30.14 in 10.0 mi South 8.1 mph - N/A   Overcast
5:08 PM 44.6 °F 39.7 °F 41.0 °F 87% 30.12 in 10.0 mi South 9.2 mph - N/A   Overcast
5:13 PM 44.6 °F 38.8 °F 41.0 °F 87% 30.12 in 10.0 mi South 11.5 mph - N/A   Overcast
5:14 PM 44.6 °F 39.2 °F 41.0 °F 87% 30.12 in 10.0 mi South 10.4 mph - N/A   Light Drizzle
5:24 PM 44.6 °F 39.7 °F 41.0 °F 87% 30.13 in 10.0 mi South 9.2 mph - N/A   Overcast
5:58 PM 45.0 °F 41.8 °F 39.9 °F 82% 30.15 in 10.0 mi South 5.8 mph - 0.00 in   Overcast
6:58 PM 45.0 °F 40.6 °F 40.5 °F 84% 30.14 in 10.0 mi SSE 8.1 mph - N/A   Overcast
7:08 PM 44.6 °F 40.2 °F 41.0 °F 87% 30.12 in 10.0 mi SSE 8.1 mph - N/A   Overcast
7:38 PM 44.6 °F 40.2 °F 42.8 °F 93% 30.12 in 10.0 mi South 8.1 mph - N/A   Overcast
7:58 PM 45.0 °F 41.2 °F 43.5 °F 95% 30.15 in 10.0 mi South 6.9 mph - N/A   Overcast
8:35 PM 44.6 °F 39.2 °F 44.6 °F 100% 30.12 in 10.0 mi South 10.4 mph - N/A   Light Drizzle
8:46 PM 44.6 °F 38.8 °F 44.6 °F 100% 30.12 in 10.0 mi South 11.5 mph - N/A   Overcast
8:58 PM 44.4 °F 38.6 °F 44.2 °F 99% 30.14 in 10.0 mi South 11.5 mph - 0.00 in   Mostly Cloudy
9:03 PM 44.6 °F 39.2 °F 44.6 °F 100% 30.12 in 10.0 mi South 10.4 mph - N/A   Mostly Cloudy
9:27 PM 44.6 °F 39.7 °F 44.6 °F 100% 30.12 in 10.0 mi South 9.2 mph - N/A Rain Light Rain
9:44 PM 44.6 °F 40.2 °F 44.6 °F 100% 30.12 in 10.0 mi South 8.1 mph - N/A   Overcast
9:54 PM 44.6 °F 40.2 °F 44.6 °F 100% 30.13 in 10.0 mi South 8.1 mph - N/A   Mostly Cloudy
9:58 PM 44.6 °F 40.2 °F 44.1 °F 98% 30.15 in 10.0 mi South 8.1 mph - 0.00 in   Mostly Cloudy
10:03 PM 44.6 °F 39.2 °F 44.6 °F 100% 30.12 in 10.0 mi South 10.4 mph - N/A   Mostly Cloudy
10:33 PM 46.4 °F 41.1 °F 44.6 °F 93% 30.13 in 10.0 mi South 11.5 mph - N/A   Overcast
10:58 PM 45.5 °F 41.3 °F 45.0 °F 98% 30.14 in 10.0 mi South 8.1 mph - N/A   Overcast
11:58 PM 45.0 °F 40.1 °F 44.4 °F 98% 30.14 in 10.0 mi South 9.2 mph - N/A   Overcast